This is the latest recevied weather packets stored in our database for station/object IU1DOF-3. If no packets are shown the sender has not sent any weather packets the latest 10 day(s).
| Time | Temp. | Humidity | Pressure | Rain* | Wind** | Luminosity | Snow |
|---|---|---|---|---|---|---|---|
| 1777727952 | 18.89° C | 59% | 1020.7 hPa | 0 mm | - | - | - |
| 1777727343 | 18.89° C | 59% | 1020.9 hPa | 0 mm | - | - | - |
| 1777726721 | 18.89° C | 62% | 1020.9 hPa | 0 mm | - | - | - |
| 1777726112 | 18.89° C | 60% | 1020.7 hPa | 0 mm | - | - | - |
| 1777725487 | 18.33° C | 60% | 1021.1 hPa | 0 mm | - | - | - |
| 1777724864 | 18.89° C | 60% | 1021.1 hPa | 0 mm | - | - | - |
| 1777724255 | 18.89° C | 59% | 1021.2 hPa | 0 mm | - | - | - |
| 1777723631 | 18.33° C | 60% | 1021.1 hPa | 0 mm | - | - | - |
| 1777723023 | 18.33° C | 59% | 1021.2 hPa | 0 mm | - | - | - |
| 1777722400 | 17.78° C | 62% | 1021.4 hPa | 0 mm | - | - | - |
| 1777721791 | 18.89° C | 60% | 1021.5 hPa | 0 mm | - | - | - |
| 1777721183 | 18.33° C | 62% | 1021.6 hPa | 0 mm | - | - | - |
| 1777720560 | 18.33° C | 63% | 1021.9 hPa | 0 mm | - | - | - |
| 1777719935 | 17.78° C | 63% | 1022 hPa | 0 mm | - | - | - |
| 1777719327 | 17.78° C | 63% | 1022.3 hPa | 0 mm | - | - | - |
| 1777718703 | 17.78° C | 59% | 1022.3 hPa | 0 mm | - | - | - |
| 1777718080 | 17.78° C | 61% | 1022.7 hPa | 0 mm | - | - | - |
| 1777717456 | 17.22° C | 64% | 1022.4 hPa | 0 mm | - | - | - |
| 1777716831 | 16.67° C | 62% | 1022.6 hPa | 0 mm | - | - | - |
| 1777716221 | 17.22° C | 63% | 1022.7 hPa | 0 mm | - | - | - |
| 1777715603 | 16.67° C | 63% | 1022.9 hPa | 0 mm | - | - | - |
| 1777714976 | 17.22° C | 63% | 1023.1 hPa | 0 mm | - | - | - |
| 1777714361 | 16.67° C | 61% | 1022.8 hPa | 0 mm | - | - | - |
| 1777713744 | 16.67° C | 61% | 1023.1 hPa | 0 mm | - | - | - |
| 1777713120 | 16.11° C | 64% | 1023.2 hPa | 0 mm | - | - | - |
* Rain latest hour (hover to see other rain measurements)
** Current wind speed in m/s (hover to see current wind gust speed)